Regional Weather Roundup
Issued by NWS Goodland, KS

Home | Current Version | Previous Version | Text Only | Print | Product List | Glossary Off
Versions: 1 2 3 4 5 6 7 8 9 10 11 12 13 14 15 16 17 18 19 20 21 22 23 24 25 26 27 28 29 30 31 32 33 34 35 36 37 38 39 40 41 42 43 44 45 46 47 48 49 50

000
ASUS43 KGLD 171159
RWRGLD

GOODLAND FORECAST AREA HOURLY WEATHER ROUNDUP
NATIONAL WEATHER SERVICE GOODLAND KS
500 AM MST TUE JAN 17 2017

...OFFICIAL OBSERVATIONS...

CITY           SKY/WX    TMP DP  RH WIND       PRES   REMARKS
GOODLAND KS    CLEAR     25  20  81 W9        30.08F
HILL CITY KS   CLOUDY    30  26  85 W5        30.09F
IMPERIAL NEB   CLOUDY    22  15  75 W6        30.08S
MCCOOK NEB     CLEAR     25  21  85 W9        30.09S
AKRON CO       CLOUDY    17  11  77 W10       30.05S WCI   5
BURLINGTON CO  CLOUDY    26  20  77 W8        30.08F
LIMON CO       CLOUDY    16  14  92 CALM      30.06F
$$

...UNOFFICIAL OBSERVATIONS...

CITY           SKY/WX    TMP DP  RH WIND       PRES   REMARKS
LENORA KS        N/A     25  32 100 NW7         N/A
NORTON KS      CLEAR     28  19  69 W12       30.07S WCI  18
SHARON SPRINGS   N/A     32  29  87 W5          N/A
TRENTON NEB      N/A     25  32 100 NW7         N/A
KIT CARSON CO    N/A     29  25  84 CALM        N/A
YUMA CO        FAIR      10   5  79 W10       30.07S WCI  -3
$$



USA.gov is the U.S. government's official web portal to all federal, state and local government web resources and services.